Location: Chaudenay-la-Ville
(47.1636°N, 4.6490°E)
Time: 02:12:10
(UTC+00:00)

Daily predictions for brighter satellites

Satellite Brightness Start Highest point End
(mag) Time Altitude Azimuth Time Altitude Azimuth Time Altitude Azimuth
CENTAUR R/B 4.0 02:45:10 43° NE 02:45:10 43° NE 02:52:56 10° ESE
USA 238 DEB 4.2 03:18:26 60° E 03:18:26 60° E 03:24:51 10° SE
USA 238 4.2 03:18:31 60° E 03:18:31 60° E 03:24:56 10° SE
Lacrosse 4 Rocket 4.4 03:22:25 14° ENE 03:22:25 14° ENE 03:23:41 10° E
Cosmos 2297 Rocket 4.4 03:32:23 16° NNE 03:32:23 16° NNE 03:33:28 10° NNE
ALOS 3.9 03:36:06 10° NNE 03:40:16 31° E 03:40:31 31° ESE
Cosmos 2263 Rocket 3.4 03:46:18 22° SSE 03:49:20 38° ESE 03:54:34 10° NE
SJ 16-02 3.9 03:57:33 10° SE 04:00:50 21° E 04:04:07 10° NE
ATLAS 3B R/B 3.9 03:59:42 27° N 04:02:28 36° NNE 04:08:57 10° E
Cosmos 1603 3.8 04:08:24 64° NNE 04:09:01 71° ENE 04:14:38 10° SE
COSMO-SKYMED 1 4.0 04:07:50 10° SE 04:11:47 35° ENE 04:13:49 23° NNE
FENGYUN 3A 3.9 04:07:03 10° NNE 04:12:28 65° ESE 04:17:50 10° S
Cosmos 1386 Rocket 4.4 04:10:34 10° S 04:16:59 83° W 04:23:23 10° N
Cosmos 1943 3.3 04:17:12 51° N 04:18:38 74° ENE 04:24:20 10° SSE
ADEOS 3.8 04:15:00 10° NNE 04:20:14 67° ESE 04:25:24 10° S
Cosmos 1933 4.1 04:21:48 50° ENE 04:22:04 51° ENE 04:26:03 10° SSE
NOSS 3-2 (C) 3.9 04:20:32 46° NW 04:23:12 80° SW 04:31:44 10° SSE
Cosmos 1777 Rocket 3.8 04:23:33 77° SSW 04:23:56 90° WNW 04:29:11 10° NNE
ATLAS CENTAUR R/B 3.5 04:23:42 16° NNE 04:24:11 16° NE 04:26:37 10° ENE
NOSS 3-4 (A) 4.1 04:19:51 13° SSW 04:24:53 51° ESE 04:30:56 10° NE
NOSS 3-4 (C) 4.1 04:19:51 12° SSW 04:25:01 51° ESE 04:31:03 10° NE
Nadezhda 1 Rocket 4.0 04:28:57 58° W 04:29:07 58° W 04:35:15 10° S
Meteor 1-4 Rocket 3.8 04:31:52 35° NE 04:32:18 37° ENE 04:35:32 10° SE
Cosmos 2084 3.8 04:33:10 58° S 04:33:10 58° S 04:36:56 10° SSE
SL-4 R/B 2.5 04:33:39 51° NE 04:33:39 51° NE 04:36:34 10° ENE
Meteor 1-31 Rocket 3.0 04:31:12 10° NNE 04:35:04 68° ESE 04:35:13 67° ESE
Cosmos 1782 4.4 04:31:44 12° N 04:35:10 34° ENE 04:38:51 10° SE
Cosmos 1538 Rocket 3.9 04:35:15 64° WNW 04:35:56 73° WSW 04:41:11 10° SSE
CENTAUR R/B 3.1 04:32:23 37° NW 04:36:04 71° WSW 04:44:52 10° SSE
Cosmos 2227 Rocket 3.9 04:40:17 18° NNW 04:40:17 18° NNW 04:42:28 10° N
Cosmos 2227 4.1 04:36:02 24° SSW 04:39:37 89° WNW 04:45:17 10° NNE
Cosmos 158 Rocket 4.4 04:37:07 23° N 04:40:00 55° ENE 04:44:51 10° SE
ARGOS Delta rocket 3.8 04:37:08 10° N 04:42:20 67° WNW 04:47:13 10° SSW
ATLAS 2AS CENTAUR R/B 3.5 04:36:47 10° SSW 04:44:34 62° ESE 04:52:18 10° NE
deb Chang Zheng 4 3.5 04:41:42 10° NNE 04:46:04 83° ESE 04:50:25 10° SSW
Cosmos 489 Rocket 4.5 04:45:09 38° NW 04:47:20 57° WSW 04:53:30 10° S
NOSS 3-2 (A) 4.5 04:50:27 35° W 04:52:25 40° WSW 05:00:10 10° S
Cosmos 1633 2.3 04:52:45 10° S 04:56:16 86° W 04:59:50 10° N
FALCON 9 DEB 4.2 04:57:31 34° N 04:57:31 34° N 05:00:16 10° NE
Gbstr 26 Del rocket 2.8 04:56:52 55° NNW 04:57:18 60° NNE 05:01:10 10° E
USA 307 3.7 04:57:31 35° NNW 04:57:48 36° N 05:01:48 10° ENE
Cosmos 1515 Rocket 4.3 04:54:33 10° N 04:58:56 53° ENE 05:03:19 10° SSE
SKYMED 2 3.4 04:55:25 10° S 04:59:45 78° WSW 05:02:27 23° NNW
Lacrosse 4 Rocket 1.4 04:58:46 43° NW 05:00:09 86° WSW 05:04:32 10° SSE
Cosmos 1184 Rocket 2.6 05:00:02 10° S 05:03:19 90° W 05:06:38 10° N
METEOR-M 4.1 04:58:15 10° N 05:03:31 61° WNW 05:08:46 10° SSW
SAR-Lupe-4 3.5 05:00:22 10° S 05:03:54 61° WSW 05:03:59 61° W
USA 308 3.7 05:03:29 33° NNW 05:04:04 35° N 05:08:02 10° ENE
USA 238 DEB 4.5 05:05:56 29° W 05:08:02 34° WSW 05:14:39 10° S
USA 238 4.5 05:06:00 29° W 05:08:08 35° WSW 05:14:46 10° S
Meteor 2-17 Rocket 4.5 05:02:39 10° S 05:08:42 83° E 05:14:47 10° N
Cosmos 1844 Rocket 4.3 05:04:02 10° S 05:09:08 36° ESE 05:14:17 10° NE
Cosmos 1461 3.5 05:09:38 38° W 05:10:33 43° WSW 05:14:51 10° S
Envisat 4.5 05:06:02 10° NNE 05:10:47 39° E 05:15:31 10° SSE
CZ-4B R/B 3.0 05:08:34 10° NNE 05:13:06 84° WNW 05:17:32 10° SSW
Cosmos 2297 Rocket 4.1 05:14:13 12° NNW 05:14:13 12° NNW 05:15:54 10° N
Meteor 1-26 Rocket 4.2 05:07:58 10° NNW 05:13:48 69° W 05:19:24 10° S
Cosmos 1151 Rocket 3.0 05:12:35 23° NNW 05:14:59 54° W 05:19:09 10° S
Okean O Rocket 4.4 05:12:22 10° NE 05:15:46 21° E 05:19:09 10° SE
Cosmos 1689 Rocket 2.2 05:13:57 10° S 05:16:25 50° SW 05:16:25 50° SW
ALOS 2.9 05:13:29 10° N 05:17:40 33° WNW 05:18:59 28° W
H-2A R/B 3.1 05:16:42 10° NNE 05:20:36 66° E 05:24:28 10° S
SAR-Lupe-1 4.5 05:17:38 10° S 05:21:02 40° W 05:21:34 37° WNW
BREEZE-M DEB (TANK) 3.6 05:16:31 24° WNW 05:21:15 67° SSW 05:24:23 10° SE
CZ-4C R/B 2.7 05:18:54 10° SSW 05:23:42 58° ESE 05:29:27 10° NE
Cosmos 1500 Rocket 4.4 05:19:36 10° S 05:23:47 52° E 05:28:01 10° NNE
CRYOSAT 2 4.5 05:20:19 10° SSW 05:25:01 51° W 05:29:47 10° NNW
ERBS 3.1 05:25:08 31° NW 05:25:20 32° NNW 05:28:22 10° NE
ERS-2 4.3 05:22:40 10° SW 05:23:14 13° SW 05:23:14 13° SW
Cosmos 1328 Rocket 3.7 05:22:02 14° NNW 05:25:39 48° W 05:29:54 10° SSW
Cosmos 2181 Rocket 4.0 05:20:22 10° NNW 05:26:26 55° W 05:32:23 10° SSW
BREEZE-M DEB (TANK) 3.0 05:25:50 24° SW 05:27:19 56° SSE 05:31:30 10° E
Lacrosse 5 2.0 05:24:16 10° SW 05:29:19 75° SE 05:34:24 10° NE
Cosmos 2263 Rocket 2.6 05:28:09 11° WSW 05:33:16 39° NW 05:38:36 10° NNE
USA 305 3.9 05:32:40 22° NW 05:34:39 32° N 05:38:33 10° ENE
PSLV R/B 4.3 05:31:01 10° S 05:34:59 42° W 05:38:31 12° NNW
Meteor PRIRODA 3.8 05:31:33 10° N 05:35:10 49° WNW 05:38:47 10° SSW
Cosmos 1709 Rocket 4.5 05:30:59 10° SW 05:36:50 37° WNW 05:42:44 10° N
Meteor 2-3 Rocket 3.9 05:33:12 10° SSW 05:38:42 48° WNW 05:44:18 10° N
SJ 16-02 1.6 05:34:51 10° SW 05:39:05 44° WNW 05:43:22 10° N
Cosmos 2154 Rocket 4.4 05:34:07 10° S 05:40:15 68° E 05:46:29 10° NNE
BREEZE-M DEB 4.0 05:31:43 17° WNW 05:40:16 72° SSW 05:43:47 10° SE
Okean 3 Rocket 4.3 05:36:42 10° SW 05:40:32 29° WNW 05:44:26 10° N
FALCON 9 DEB 4.0 05:37:55 10° SW 05:40:58 46° SE 05:44:05 10° ENE
Cosmos 923 Rocket 4.3 05:37:01 13° NW 05:41:31 45° WSW 05:46:31 10° S
ASTRO F (AKARI) 4.1 05:38:47 10° N 05:41:51 63° WNW 05:44:55 10° SSW
Cosmos 1766 Rocket 4.3 05:38:15 10° SW 05:42:14 31° WNW 05:46:14 10° N
Cosmos 1862 3.6 05:38:43 10° S 05:42:45 72° E 05:46:49 10° NNE
USA 306 4.0 05:40:35 19° NW 05:42:57 32° N 05:46:51 10° ENE
Cosmos 1743 Rocket 3.6 05:42:06 10° S 05:46:32 87° W 05:51:03 10° N
Cosmos 2082 Rocket 4.4 05:43:14 10° N 05:46:55 17° NE 05:50:35 10° E
CZ-4B R/B 4.3 05:42:36 10° NNE 05:47:45 47° E 05:52:56 10° S
COSMO-SKYMED 1 3.6 05:44:24 10° SSW 05:48:01 25° W 05:51:01 13° NW
Cosmos 1408 Rocket 3.9 05:46:48 10° SSW 05:51:03 43° WNW 05:55:20 10° N
CZ-2C R/B 3.3 05:45:53 10° SSE 05:51:17 59° ENE 05:56:35 10° N
ATLAS 3B R/B 2.8 05:46:58 11° NW 05:53:44 73° SW 06:00:54 10° SSE
Cosmos 990 Rocket 4.0 05:48:42 10° SSW 05:53:54 68° WNW 05:59:11 10° NNE
Spot 2 4.5 05:51:43 10° NNE 05:56:53 75° WNW 06:01:58 10° SSW
COSMOS 2455 4.4 05:51:52 10° S 05:57:27 41° ESE 06:03:03 10° NE
PSLV R/B 3.8 05:54:38 10° N 05:58:30 58° WNW 06:02:14 10° SSW
EO 1 Delta rocket 4.2 05:54:36 10° S 05:59:40 47° W 06:04:12 10° NNW
ATLAS 5 CENTAUR R/B 3.6 06:01:58 13° WNW 06:03:31 15° NW 06:05:18 10° N
ATLAS CENTAUR R/B 1.1 05:59:53 11° NW 06:03:32 84° SW 06:07:27 10° SE
Cosmos 2327 Rocket 4.4 05:58:05 10° SSW 06:04:11 80° W 06:10:18 10° N
Cosmos 1833 Rocket 4.2 05:59:23 10° NNW 06:04:23 31° NE 06:09:20 10° ESE
Cosmos 2074 Rocket 4.1 05:59:06 10° SSW 06:05:09 54° WNW 06:11:15 10° N
MOS 1 Rocket 3.7 06:01:15 10° S 06:05:46 45° W 06:10:36 10° NNW
Cosmos 1805 Rocket 3.8 06:01:56 10° S 06:06:21 76° E 06:10:48 10° NNE
Meteor 1-4 Rocket 4.2 06:06:06 13° WNW 06:06:58 14° W 06:08:50 10° WSW
NOAA 6 4.0 06:04:58 10° N 06:10:05 71° WNW 06:15:10 10° SSW
Cosmos 1680 Rocket 4.2 06:05:45 10° NW 06:10:31 34° WSW 06:15:14 10° SSW
FALCON 9 DEB 3.1 06:07:32 10° SW 06:10:43 77° SSE 06:13:56 10° ENE
Cosmos 1782 4.1 06:08:13 10° NW 06:11:15 21° W 06:14:17 10° SW
SMAP 3.2 06:07:23 10° NNE 06:12:05 84° ESE 06:16:44 10° SSW
SL-4 R/B 2.4 06:09:15 12° WNW 06:12:40 41° N 06:16:08 10° ENE
FALCON 9 DEB 3.0 06:10:06 10° WSW 06:13:19 84° SSE 06:16:33 10° ENE
H-2A R/B 2.3 06:10:06 10° N 06:13:55 58° WNW 06:17:41 10° SSW
RESURS DK-1 2.4 06:10:51 10° SW 06:14:56 59° WNW 06:19:05 10° NNE
NOSS 3-4 (A) 3.9 06:10:19 10° WSW 06:15:56 40° NW 06:22:02 10° NNE
NOSS 3-4 (C) 3.9 06:10:26 10° WSW 06:16:03 41° NW 06:22:09 10° NNE
Cosmos 2184 Rocket 4.3 06:13:17 10° SSW 06:19:17 45° WNW 06:25:24 10° N
Genesis I 3.1 06:16:24 10° SW 06:20:12 74° NW 06:24:04 10° NE
Cosmos 2228 Rocket 3.4 06:16:20 10° NNW 06:20:34 45° W 06:24:46 10° SSW
Cosmos 405 Rocket 2.9 06:18:53 10° SSW 06:22:27 46° WNW 06:26:04 10° N
Cosmos 1295 Rocket 4.4 06:17:31 10° SSW 06:23:36 73° W 06:29:42 10° N
USA 234 3.3 06:17:05 10° NE 06:23:39 83° NNW 06:30:12 10° WSW
Atlas Centaur 2 4.5 06:27:46 10° SSW 06:28:57 11° S 06:30:06 10° S
Cosmos 1812 3.5 06:25:44 10° NNW 06:29:10 31° W 06:32:36 10° SSW
